Time,TemperatureF,DewpointF,PressureIn,WindDirection,WindDirectionDegrees,WindSpeedMPH,WindSpeedGustMPH,Humidity,HourlyPrecipIn,Conditions,Clouds,dailyrainin,SoftwareType,DateUTC
2013-09-29 00:02:00,58.5,53.7,30.03,NW,315,0.0,0.0,84,0.00,,,0.00,VWS V14.01,2013-09-29 05:02:00,
2013-09-29 00:07:00,58.3,53.5,30.06,NW,315,0.0,0.0,84,0.00,,,0.00,VWS V14.01,2013-09-29 05:07:00,
2013-09-29 00:12:00,58.1,53.3,30.06,NW,315,0.0,0.0,84,0.00,,,0.00,VWS V14.01,2013-09-29 05:12:00,
2013-09-29 00:17:00,58.1,53.3,30.06,NW,315,0.0,0.0,84,0.00,,,0.00,VWS V14.01,2013-09-29 05:17:00,
2013-09-29 00:22:00,58.1,53.6,30.03,NW,315,0.0,0.0,85,0.00,,,0.00,VWS V14.01,2013-09-29 05:22:00,
2013-09-29 00:27:00,57.9,53.8,30.03,NW,315,0.0,0.0,86,0.00,,,0.00,VWS V14.01,2013-09-29 05:27:00,
2013-09-29 00:32:00,57.9,53.8,30.03,NW,315,0.0,0.0,86,0.00,,,0.00,VWS V14.01,2013-09-29 05:32:00,
2013-09-29 00:37:00,57.7,53.9,30.03,NW,315,0.0,0.0,87,0.00,,,0.00,VWS V14.01,2013-09-29 05:37:00,
2013-09-29 00:42:00,57.7,53.9,30.03,NW,315,0.0,0.0,87,0.00,,,0.00,VWS V14.01,2013-09-29 05:42:00,
2013-09-29 00:47:00,57.7,53.9,30.03,NW,315,0.0,0.0,87,0.00,,,0.00,VWS V14.01,2013-09-29 05:47:00,
2013-09-29 00:52:00,57.6,54.0,30.03,NW,315,0.0,0.0,88,0.00,,,0.00,VWS V14.01,2013-09-29 05:52:00,
2013-09-29 00:57:00,57.4,53.9,30.06,NW,315,0.0,0.0,88,0.00,,,0.00,VWS V14.01,2013-09-29 05:57:00,
2013-09-29 01:02:00,57.2,53.7,30.06,NW,315,0.0,0.0,88,0.00,,,0.00,VWS V14.01,2013-09-29 06:02:00,
2013-09-29 01:07:00,57.2,53.7,30.06,NW,315,0.0,0.0,88,0.00,,,0.00,VWS V14.01,2013-09-29 06:07:00,
2013-09-29 01:12:00,57.0,53.8,30.06,NW,315,0.0,0.0,89,0.00,,,0.00,VWS V14.01,2013-09-29 06:12:00,
2013-09-29 01:17:00,56.8,53.6,30.06,NW,315,0.0,0.0,89,0.00,,,0.00,VWS V14.01,2013-09-29 06:17:00,
2013-09-29 01:22:00,56.8,53.9,30.03,NW,315,0.0,0.0,90,0.00,,,0.00,VWS V14.01,2013-09-29 06:22:00,
2013-09-29 01:27:00,56.7,53.8,30.03,NW,315,0.0,0.0,90,0.00,,,0.00,VWS V14.01,2013-09-29 06:27:00,
2013-09-29 01:32:00,56.5,53.6,30.03,NW,315,0.0,0.0,90,0.00,,,0.00,VWS V14.01,2013-09-29 06:32:00,
2013-09-29 01:37:00,56.5,53.6,30.06,NW,315,0.0,0.0,90,0.00,,,0.00,VWS V14.01,2013-09-29 06:37:00,
2013-09-29 01:42:00,56.3,53.4,30.06,NW,315,0.0,0.0,90,0.00,,,0.00,VWS V14.01,2013-09-29 06:42:00,
2013-09-29 01:47:00,56.1,53.2,30.06,NW,315,0.0,0.0,90,0.00,,,0.00,VWS V14.01,2013-09-29 06:47:00,
2013-09-29 01:52:00,55.9,53.0,30.06,NW,315,0.0,0.0,90,0.00,,,0.00,VWS V14.01,2013-09-29 06:52:00,
2013-09-29 01:57:00,55.8,53.2,30.06,NW,315,0.0,0.0,91,0.00,,,0.00,VWS V14.01,2013-09-29 06:57:00,
2013-09-29 02:02:00,55.6,53.0,30.06,NW,315,0.0,0.0,91,0.00,,,0.00,VWS V14.01,2013-09-29 07:02:00,
2013-09-29 02:07:00,55.6,53.0,30.06,NW,315,0.0,0.0,91,0.00,,,0.00,VWS V14.01,2013-09-29 07:07:00,
2013-09-29 02:12:00,55.4,52.8,30.06,NW,315,0.0,0.0,91,0.00,,,0.00,VWS V14.01,2013-09-29 07:12:00,
2013-09-29 02:17:00,55.2,52.6,30.06,NW,315,0.0,0.0,91,0.00,,,0.00,VWS V14.01,2013-09-29 07:17:00,
2013-09-29 02:22:00,55.0,52.5,30.06,NW,315,0.0,0.0,91,0.00,,,0.00,VWS V14.01,2013-09-29 07:22:00,
2013-09-29 02:27:00,55.0,52.5,30.06,NW,315,0.0,0.0,91,0.00,,,0.00,VWS V14.01,2013-09-29 07:27:00,
2013-09-29 02:32:00,54.9,52.6,30.06,NW,315,0.0,0.0,92,0.00,,,0.00,VWS V14.01,2013-09-29 07:32:00,
2013-09-29 02:37:00,54.7,52.4,30.06,NW,315,0.0,0.0,92,0.00,,,0.00,VWS V14.01,2013-09-29 07:37:00,
2013-09-29 02:42:00,54.7,52.4,30.06,NW,315,0.0,0.0,92,0.00,,,0.00,VWS V14.01,2013-09-29 07:42:00,
2013-09-29 02:47:00,54.5,52.2,30.06,NW,315,0.0,0.0,92,0.00,,,0.00,VWS V14.01,2013-09-29 07:47:00,
2013-09-29 02:52:00,54.5,52.2,30.06,NW,315,0.0,0.0,92,0.00,,,0.00,VWS V14.01,2013-09-29 07:52:00,
2013-09-29 02:57:00,54.3,52.0,30.06,NW,315,0.0,0.0,92,0.00,,,0.00,VWS V14.01,2013-09-29 07:57:00,
2013-09-29 03:02:00,54.1,51.9,30.06,NW,315,0.0,0.0,92,0.00,,,0.00,VWS V14.01,2013-09-29 08:02:00,
2013-09-29 03:07:00,54.1,51.9,30.06,NW,315,0.0,0.0,92,0.00,,,0.00,VWS V14.01,2013-09-29 08:07:00,
2013-09-29 03:12:00,54.0,52.0,30.06,NW,315,0.0,0.0,93,0.00,,,0.00,VWS V14.01,2013-09-29 08:12:00,
2013-09-29 03:17:00,53.8,51.8,30.06,NW,315,0.0,0.0,93,0.00,,,0.00,VWS V14.01,2013-09-29 08:17:00,
2013-09-29 03:22:00,53.6,51.6,30.03,NW,315,0.0,0.0,93,0.00,,,0.00,VWS V14.01,2013-09-29 08:22:00,
2013-09-29 03:27:00,53.4,51.5,30.03,NW,315,0.0,0.0,93,0.00,,,0.00,VWS V14.01,2013-09-29 08:27:00,
2013-09-29 03:32:00,53.4,51.5,30.03,NW,315,0.0,0.0,93,0.00,,,0.00,VWS V14.01,2013-09-29 08:32:00,
2013-09-29 03:37:00,53.4,51.5,30.06,NW,315,0.0,0.0,93,0.00,,,0.00,VWS V14.01,2013-09-29 08:37:00,
2013-09-29 03:42:00,53.4,51.7,30.06,NW,315,0.0,0.0,94,0.00,,,0.00,VWS V14.01,2013-09-29 08:42:00,
2013-09-29 03:47:00,53.4,51.7,30.06,NW,315,0.0,0.0,94,0.00,,,0.00,VWS V14.01,2013-09-29 08:47:00,
2013-09-29 03:52:00,53.4,51.7,30.06,NW,315,0.0,0.0,94,0.00,,,0.00,VWS V14.01,2013-09-29 08:52:00,
2013-09-29 03:57:00,53.4,51.7,30.06,NW,315,0.0,0.0,94,0.00,,,0.00,VWS V14.01,2013-09-29 08:57:00,
2013-09-29 04:02:00,53.2,51.6,30.06,NW,315,0.0,0.0,94,0.00,,,0.00,VWS V14.01,2013-09-29 09:02:00,
2013-09-29 04:07:00,53.2,51.6,30.06,NW,315,0.0,0.0,94,0.00,,,0.00,VWS V14.01,2013-09-29 09:07:00,
2013-09-29 04:12:00,53.1,51.4,30.06,NW,315,0.0,0.0,94,0.00,,,0.00,VWS V14.01,2013-09-29 09:12:00,
2013-09-29 04:17:00,53.1,51.4,30.06,NW,315,0.0,0.0,94,0.00,,,0.00,VWS V14.01,2013-09-29 09:17:00,
2013-09-29 04:22:00,53.1,51.4,30.06,NW,315,0.0,0.0,94,0.00,,,0.00,VWS V14.01,2013-09-29 09:22:00,
2013-09-29 04:27:00,53.1,51.4,30.06,NW,315,0.0,0.0,94,0.00,,,0.00,VWS V14.01,2013-09-29 09:27:00,
2013-09-29 04:32:00,52.9,51.2,30.06,NW,315,0.0,0.0,94,0.00,,,0.00,VWS V14.01,2013-09-29 09:32:00,
2013-09-29 04:37:00,52.9,51.2,30.03,NW,315,0.0,0.0,94,0.00,,,0.00,VWS V14.01,2013-09-29 09:37:00,
2013-09-29 04:42:00,52.9,51.2,30.03,NW,315,0.0,0.0,94,0.00,,,0.00,VWS V14.01,2013-09-29 09:42:00,
2013-09-29 04:47:00,52.9,51.2,30.03,NW,315,0.0,0.0,94,0.00,,,0.00,VWS V14.01,2013-09-29 09:47:00,
2013-09-29 04:52:00,52.9,51.5,30.06,NW,315,0.0,0.0,95,0.00,,,0.00,VWS V14.01,2013-09-29 09:52:00,
2013-09-29 04:57:00,52.9,51.5,30.06,NW,315,0.0,0.0,95,0.00,,,0.00,VWS V14.01,2013-09-29 09:57:00,
2013-09-29 05:02:00,52.9,51.5,30.06,NW,315,0.0,0.0,95,0.00,,,0.00,VWS V14.01,2013-09-29 10:02:00,
2013-09-29 05:07:00,53.1,51.7,30.06,NW,315,0.0,0.0,95,0.00,,,0.00,VWS V14.01,2013-09-29 10:07:00,
2013-09-29 05:12:00,53.1,51.7,30.06,NW,315,0.0,0.0,95,0.00,,,0.00,VWS V14.01,2013-09-29 10:12:00,
2013-09-29 05:17:00,53.1,51.7,30.06,NW,315,0.0,0.0,95,0.00,,,0.00,VWS V14.01,2013-09-29 10:17:00,
2013-09-29 05:22:00,52.9,51.5,30.06,NW,315,0.0,0.0,95,0.00,,,0.00,VWS V14.01,2013-09-29 10:22:00,
2013-09-29 05:27:00,52.7,51.3,30.06,NW,315,0.0,0.0,95,0.00,,,0.00,VWS V14.01,2013-09-29 10:27:00,
2013-09-29 05:32:00,52.5,51.1,30.06,NW,315,0.0,0.0,95,0.00,,,0.00,VWS V14.01,2013-09-29 10:32:00,
2013-09-29 05:37:00,52.5,51.1,30.06,NW,315,0.0,0.0,95,0.00,,,0.00,VWS V14.01,2013-09-29 10:37:00,
2013-09-29 05:42:00,52.3,51.0,30.06,NW,315,0.0,0.0,95,0.00,,,0.00,VWS V14.01,2013-09-29 10:42:00,
2013-09-29 05:47:00,52.3,51.0,30.06,NW,315,0.0,0.0,95,0.00,,,0.00,VWS V14.01,2013-09-29 10:47:00,
2013-09-29 05:52:00,52.2,50.8,30.06,NW,315,0.0,0.0,95,0.00,,,0.00,VWS V14.01,2013-09-29 10:52:00,
2013-09-29 05:57:00,52.2,50.8,30.06,NW,315,0.0,0.0,95,0.00,,,0.00,VWS V14.01,2013-09-29 10:57:00,
2013-09-29 06:02:00,52.2,50.8,30.06,NW,315,0.0,0.0,95,0.00,,,0.00,VWS V14.01,2013-09-29 11:02:00,
2013-09-29 06:07:00,52.2,50.8,30.06,NW,315,0.0,0.0,95,0.00,,,0.00,VWS V14.01,2013-09-29 11:07:00,
2013-09-29 06:12:00,52.3,51.0,30.06,NW,315,0.0,0.0,95,0.00,,,0.00,VWS V14.01,2013-09-29 11:12:00,
2013-09-29 06:17:00,52.3,51.0,30.06,NW,315,0.0,0.0,95,0.00,,,0.00,VWS V14.01,2013-09-29 11:17:00,
2013-09-29 06:22:00,52.5,51.1,30.06,NW,315,0.0,0.0,95,0.00,,,0.00,VWS V14.01,2013-09-29 11:22:00,
2013-09-29 06:27:00,52.7,51.3,30.06,NW,315,0.0,0.0,95,0.00,,,0.00,VWS V14.01,2013-09-29 11:27:00,
2013-09-29 06:32:00,52.9,51.5,30.06,NW,315,0.0,0.0,95,0.00,,,0.00,VWS V14.01,2013-09-29 11:32:00,
2013-09-29 06:37:00,53.1,51.7,30.06,NW,315,0.0,0.0,95,0.00,,,0.00,VWS V14.01,2013-09-29 11:37:00,
2013-09-29 06:42:00,53.2,52.1,30.06,NW,315,0.0,0.0,96,0.00,,,0.00,VWS V14.01,2013-09-29 11:42:00,
2013-09-29 06:47:00,53.4,52.3,30.06,NW,315,0.0,0.0,96,0.00,,,0.00,VWS V14.01,2013-09-29 11:47:00,
2013-09-29 06:52:00,53.6,52.2,30.06,NW,315,0.0,0.0,95,0.00,,,0.00,VWS V14.01,2013-09-29 11:52:00,
2013-09-29 06:57:00,53.8,52.4,30.06,NW,315,0.0,0.0,95,0.00,,,0.00,VWS V14.01,2013-09-29 11:57:00,
2013-09-29 07:02:00,54.0,52.8,30.06,NW,315,0.0,0.0,96,0.00,,,0.00,VWS V14.01,2013-09-29 12:02:00,
2013-09-29 07:07:00,54.1,53.0,30.09,NW,315,0.0,0.0,96,0.00,,,0.00,VWS V14.01,2013-09-29 12:07:00,
2013-09-29 07:12:00,54.1,53.0,30.09,NW,315,0.0,0.0,96,0.00,,,0.00,VWS V14.01,2013-09-29 12:12:00,
2013-09-29 07:17:00,54.3,53.2,30.09,NW,315,0.0,0.0,96,0.00,,,0.00,VWS V14.01,2013-09-29 12:17:00,
2013-09-29 07:22:00,54.5,53.4,30.06,NW,315,0.0,0.0,96,0.00,,,0.00,VWS V14.01,2013-09-29 12:22:00,
2013-09-29 07:27:00,54.5,53.4,30.06,NW,315,0.0,0.0,96,0.00,,,0.00,VWS V14.01,2013-09-29 12:27:00,
2013-09-29 07:32:00,54.7,53.6,30.06,NW,315,0.0,0.0,96,0.00,,,0.00,VWS V14.01,2013-09-29 12:32:00,
2013-09-29 07:37:00,54.7,53.6,30.09,NW,315,0.0,0.0,96,0.00,,,0.00,VWS V14.01,2013-09-29 12:37:00,
2013-09-29 07:42:00,54.5,53.4,30.09,NW,315,0.0,0.0,96,0.00,,,0.00,VWS V14.01,2013-09-29 12:42:00,
2013-09-29 07:47:00,54.5,53.4,30.09,NW,315,0.0,0.0,96,0.00,,,0.00,VWS V14.01,2013-09-29 12:47:00,
2013-09-29 07:52:00,54.5,53.4,30.09,NW,315,0.0,0.0,96,0.00,,,0.00,VWS V14.01,2013-09-29 12:52:00,
2013-09-29 07:57:00,54.3,53.2,30.09,NW,315,0.0,0.0,96,0.00,,,0.00,VWS V14.01,2013-09-29 12:57:00,
2013-09-29 08:02:00,54.5,53.4,30.09,NW,315,0.0,0.0,96,0.00,,,0.00,VWS V14.01,2013-09-29 13:02:00,
2013-09-29 08:07:00,54.5,53.4,30.09,NW,315,0.0,0.0,96,0.00,,,0.00,VWS V14.01,2013-09-29 13:07:00,
2013-09-29 08:12:00,54.5,53.4,30.09,NW,315,0.0,0.0,96,0.00,,,0.00,VWS V14.01,2013-09-29 13:12:00,
2013-09-29 08:17:00,54.7,53.6,30.09,NW,315,0.0,0.0,96,0.00,,,0.00,VWS V14.01,2013-09-29 13:17:00,
2013-09-29 08:22:00,54.7,53.6,30.09,NW,315,0.0,0.0,96,0.00,,,0.00,VWS V14.01,2013-09-29 13:22:00,
2013-09-29 08:27:00,54.9,53.7,30.09,NW,315,0.0,0.0,96,0.00,,,0.00,VWS V14.01,2013-09-29 13:27:00,
2013-09-29 08:32:00,55.2,54.1,30.09,NW,315,0.0,0.0,96,0.00,,,0.00,VWS V14.01,2013-09-29 13:32:00,
2013-09-29 08:37:00,55.6,54.5,30.09,NW,315,0.0,0.0,96,0.00,,,0.00,VWS V14.01,2013-09-29 13:37:00,
2013-09-29 08:42:00,55.9,54.8,30.09,NW,315,0.0,0.0,96,0.00,,,0.00,VWS V14.01,2013-09-29 13:42:00,
2013-09-29 08:47:00,56.1,55.0,30.09,NW,315,0.0,0.0,96,0.00,,,0.00,VWS V14.01,2013-09-29 13:47:00,
2013-09-29 08:52:00,56.3,55.2,30.09,NW,315,0.0,0.0,96,0.00,,,0.00,VWS V14.01,2013-09-29 13:52:00,
2013-09-29 08:57:00,56.7,55.5,30.09,NW,315,0.0,0.0,96,0.00,,,0.00,VWS V14.01,2013-09-29 13:57:00,
2013-09-29 09:03:00,56.8,55.7,30.09,NW,315,0.0,0.0,96,0.00,,,0.00,VWS V14.01,2013-09-29 14:03:00,
2013-09-29 09:08:00,56.8,55.7,30.09,NW,315,0.0,0.0,96,0.00,,,0.00,VWS V14.01,2013-09-29 14:08:00,
2013-09-29 09:13:00,56.8,55.7,30.09,NW,315,0.0,0.0,96,0.00,,,0.00,VWS V14.01,2013-09-29 14:13:00,
2013-09-29 09:18:00,56.8,55.7,30.09,NW,315,0.0,0.0,96,0.00,,,0.00,VWS V14.01,2013-09-29 14:18:00,
2013-09-29 09:23:00,57.2,56.1,30.09,NW,315,0.0,0.0,96,0.00,,,0.00,VWS V14.01,2013-09-29 14:23:00,
2013-09-29 09:28:00,57.6,56.4,30.09,NW,315,0.0,0.0,96,0.00,,,0.00,VWS V14.01,2013-09-29 14:28:00,
2013-09-29 09:33:00,57.9,56.8,30.09,NW,315,0.0,0.0,96,0.00,,,0.00,VWS V14.01,2013-09-29 14:33:00,
2013-09-29 09:38:00,58.1,57.0,30.09,NW,315,0.0,0.0,96,0.00,,,0.00,VWS V14.01,2013-09-29 14:38:00,
2013-09-29 09:43:00,58.1,57.0,30.09,NW,315,0.0,0.0,96,0.00,,,0.00,VWS V14.01,2013-09-29 14:43:00,
2013-09-29 09:48:00,58.8,57.7,30.09,NW,315,0.0,0.0,96,0.00,,,0.00,VWS V14.01,2013-09-29 14:48:00,
2013-09-29 09:53:00,59.0,57.6,30.09,NW,315,0.0,0.0,95,0.00,,,0.00,VWS V14.01,2013-09-29 14:53:00,
2013-09-29 09:58:00,59.4,57.9,30.09,NW,315,0.0,0.0,95,0.00,,,0.00,VWS V14.01,2013-09-29 14:58:00,
2013-09-29 10:03:00,59.7,58.3,30.09,NW,315,0.0,0.0,95,0.00,,,0.00,VWS V14.01,2013-09-29 15:03:00,
2013-09-29 10:08:00,60.3,58.8,30.09,WNW,292,0.0,0.0,95,0.00,,,0.00,VWS V14.01,2013-09-29 15:08:00,
2013-09-29 10:13:00,60.4,59.0,30.09,WNW,292,0.0,0.0,95,0.00,,,0.00,VWS V14.01,2013-09-29 15:13:00,
2013-09-29 10:18:00,60.3,58.8,30.09,WNW,292,0.0,0.0,95,0.00,,,0.00,VWS V14.01,2013-09-29 15:18:00,
2013-09-29 10:23:00,60.1,58.3,30.09,WNW,292,0.0,0.0,94,0.00,,,0.00,VWS V14.01,2013-09-29 15:23:00,
2013-09-29 10:28:00,60.8,58.2,30.09,WNW,292,0.0,0.0,91,0.00,,,0.00,VWS V14.01,2013-09-29 15:28:00,
2013-09-29 10:33:00,60.6,56.4,30.09,ENE,68,0.0,0.0,86,0.00,,,0.00,VWS V14.01,2013-09-29 15:33:00,
2013-09-29 10:38:00,60.6,54.4,30.09,NW,315,0.0,0.0,80,0.00,,,0.00,VWS V14.01,2013-09-29 15:38:00,
2013-09-29 10:43:00,61.0,49.5,30.09,NW,315,0.0,0.0,66,0.00,,,0.00,VWS V14.01,2013-09-29 15:43:00,
2013-09-29 10:48:00,61.3,48.7,30.09,NE,45,0.0,0.0,63,0.00,,,0.00,VWS V14.01,2013-09-29 15:48:00,
2013-09-29 10:53:00,61.5,46.2,30.09,NNW,338,0.0,0.0,57,0.00,,,0.00,VWS V14.01,2013-09-29 15:53:00,
2013-09-29 10:58:00,61.7,45.9,30.09,NNW,338,0.0,0.0,56,0.00,,,0.00,VWS V14.01,2013-09-29 15:58:00,
2013-09-29 11:03:00,62.1,46.2,30.09,NNE,22,0.0,0.0,56,0.00,,,0.00,VWS V14.01,2013-09-29 16:03:00,
2013-09-29 11:08:00,62.4,46.1,30.09,NNE,22,0.0,0.0,55,0.00,,,0.00,VWS V14.01,2013-09-29 16:08:00,
2013-09-29 11:13:00,62.8,44.9,30.09,NNE,22,0.0,0.0,52,0.00,,,0.00,VWS V14.01,2013-09-29 16:13:00,
2013-09-29 11:18:00,63.0,45.1,30.09,ENE,68,0.0,0.0,52,0.00,,,0.00,VWS V14.01,2013-09-29 16:18:00,
2013-09-29 11:23:00,63.3,45.4,30.09,ENE,68,0.0,0.0,52,0.00,,,0.00,VWS V14.01,2013-09-29 16:23:00,
2013-09-29 11:28:00,63.5,45.6,30.09,ENE,68,0.0,0.0,52,0.00,,,0.00,VWS V14.01,2013-09-29 16:28:00,
2013-09-29 11:33:00,63.9,45.9,30.09,NW,315,3.6,3.6,52,0.00,,,0.00,VWS V14.01,2013-09-29 16:33:00,
2013-09-29 11:38:00,63.7,45.2,30.09,NW,315,0.0,0.0,51,0.00,,,0.00,VWS V14.01,2013-09-29 16:38:00,
2013-09-29 11:43:00,63.9,44.9,30.09,NW,315,0.0,0.0,50,0.00,,,0.00,VWS V14.01,2013-09-29 16:43:00,
2013-09-29 11:48:00,64.2,44.7,30.09,NE,45,0.0,0.0,49,0.00,,,0.00,VWS V14.01,2013-09-29 16:48:00,
2013-09-29 11:53:00,64.8,45.2,30.09,NE,45,0.0,0.0,49,0.00,,,0.62,VWS V14.01,2013-09-29 16:53:00,
2013-09-29 11:58:00,65.1,45.0,30.09,NE,45,0.0,0.0,48,0.00,,,0.00,VWS V14.01,2013-09-29 16:58:00,
2013-09-29 12:03:00,65.5,45.3,30.09,NE,45,0.0,0.0,48,0.00,,,0.00,VWS V14.01,2013-09-29 17:03:00,
2013-09-29 12:08:00,65.5,45.3,30.09,NNW,338,0.0,0.0,48,0.00,,,0.00,VWS V14.01,2013-09-29 17:08:00,
2013-09-29 12:13:00,65.7,44.9,30.09,NNW,338,0.0,0.0,47,0.00,,,0.00,VWS V14.01,2013-09-29 17:13:00,
2013-09-29 12:18:00,65.8,45.6,30.09,NNE,22,0.0,0.0,48,0.00,,,0.00,VWS V14.01,2013-09-29 17:18:00,
2013-09-29 12:23:00,66.2,46.0,30.09,NNE,22,0.0,0.0,48,0.00,,,0.00,VWS V14.01,2013-09-29 17:23:00,
2013-09-29 12:28:00,66.2,44.8,30.09,NNE,22,0.0,0.0,46,0.00,,,0.00,VWS V14.01,2013-09-29 17:28:00,
2013-09-29 12:33:00,66.7,45.3,30.09,NNE,22,0.0,0.0,46,0.00,,,0.00,VWS V14.01,2013-09-29 17:33:00,
2013-09-29 12:38:00,66.9,45.5,30.06,NNE,22,0.0,0.0,46,0.00,,,0.00,VWS V14.01,2013-09-29 17:38:00,
2013-09-29 12:43:00,66.7,44.8,30.06,NNW,338,0.0,0.0,45,0.00,,,0.00,VWS V14.01,2013-09-29 17:43:00,
2013-09-29 12:48:00,67.1,45.1,30.06,NE,45,0.0,0.0,45,0.00,,,0.00,VWS V14.01,2013-09-29 17:48:00,
2013-09-29 12:53:00,67.3,45.2,30.06,NE,45,0.0,0.0,45,0.00,,,0.00,VWS V14.01,2013-09-29 17:53:00,
2013-09-29 12:58:00,67.6,44.4,30.06,NE,45,0.0,0.0,43,0.00,,,0.00,VWS V14.01,2013-09-29 17:58:00,
2013-09-29 13:03:00,67.8,43.9,30.06,NE,45,0.0,0.0,42,0.00,,,0.00,VWS V14.01,2013-09-29 18:03:00,
2013-09-29 13:08:00,68.2,44.2,30.06,NE,45,0.0,0.0,42,0.00,,,0.00,VWS V14.01,2013-09-29 18:08:00,
2013-09-29 13:13:00,68.2,40.9,30.06,NE,45,0.0,0.0,37,0.00,,,0.00,VWS V14.01,2013-09-29 18:13:00,
2013-09-29 13:18:00,68.4,41.8,30.06,NE,45,0.0,0.0,38,0.00,,,0.00,VWS V14.01,2013-09-29 18:18:00,
2013-09-29 13:23:00,68.4,40.4,30.03,NE,45,0.0,0.0,36,0.00,,,0.00,VWS V14.01,2013-09-29 18:23:00,
2013-09-29 13:28:00,68.4,39.7,30.03,NE,45,0.0,0.0,35,0.00,,,0.00,VWS V14.01,2013-09-29 18:28:00,
2013-09-29 13:33:00,68.7,40.7,30.03,NE,45,0.0,0.0,36,0.00,,,0.00,VWS V14.01,2013-09-29 18:33:00,
2013-09-29 13:38:00,68.7,40.0,30.03,NE,45,0.0,0.0,35,0.00,,,0.00,VWS V14.01,2013-09-29 18:38:00,
2013-09-29 13:43:00,68.7,40.0,30.03,ENE,68,0.0,0.0,35,0.00,,,0.00,VWS V14.01,2013-09-29 18:43:00,
2013-09-29 13:48:00,68.9,39.4,30.03,South,180,0.0,0.0,34,0.00,,,0.00,VWS V14.01,2013-09-29 18:48:00,
2013-09-29 13:53:00,69.1,39.6,30.03,ESE,112,0.0,0.0,34,0.00,,,0.00,VWS V14.01,2013-09-29 18:53:00,
2013-09-29 13:58:00,69.3,39.0,30.03,ENE,68,0.0,0.0,33,0.00,,,0.00,VWS V14.01,2013-09-29 18:58:00,
2013-09-29 14:03:00,69.3,39.0,30.03,ENE,68,0.0,0.0,33,0.00,,,0.00,VWS V14.01,2013-09-29 19:03:00,
2013-09-29 14:08:00,69.6,38.5,30.03,ENE,68,0.0,0.0,32,0.00,,,0.00,VWS V14.01,2013-09-29 19:08:00,
2013-09-29 14:13:00,69.6,36.8,30.03,NE,45,0.0,0.0,30,0.00,,,0.00,VWS V14.01,2013-09-29 19:13:00,
2013-09-29 14:18:00,69.4,35.0,30.03,NE,45,0.0,0.0,28,0.00,,,0.00,VWS V14.01,2013-09-29 19:18:00,
2013-09-29 14:23:00,69.6,36.0,30.00,NE,45,0.0,0.0,29,0.00,,,0.00,VWS V14.01,2013-09-29 19:23:00,
2013-09-29 14:28:00,69.4,33.1,30.00,NE,45,0.0,0.0,26,0.00,,,0.62,VWS V14.01,2013-09-29 19:28:00,
2013-09-29 14:33:00,69.6,33.2,30.00,NE,45,0.0,0.0,26,0.00,,,0.00,VWS V14.01,2013-09-29 19:33:00,
2013-09-29 14:38:00,69.6,31.3,30.00,NE,45,0.0,0.0,24,0.00,,,0.00,VWS V14.01,2013-09-29 19:38:00,
2013-09-29 14:43:00,69.8,31.4,30.00,NE,45,0.0,0.0,24,0.00,,,0.00,VWS V14.01,2013-09-29 19:43:00,
2013-09-29 14:48:00,70.2,30.7,30.00,NE,45,0.0,0.0,23,0.00,,,0.00,VWS V14.01,2013-09-29 19:48:00,
2013-09-29 14:53:00,70.2,29.6,30.00,NE,45,0.0,0.0,22,0.00,,,0.00,VWS V14.01,2013-09-29 19:53:00,
2013-09-29 14:58:00,70.5,29.9,30.00,NE,45,0.0,0.0,22,0.00,,,0.00,VWS V14.01,2013-09-29 19:58:00,
2013-09-29 15:03:00,70.5,29.9,30.00,NE,45,0.0,0.0,22,0.00,,,0.00,VWS V14.01,2013-09-29 20:03:00,
2013-09-29 15:08:00,70.5,29.9,30.00,NE,45,0.0,0.0,22,0.00,,,0.00,VWS V14.01,2013-09-29 20:08:00,
2013-09-29 15:13:00,70.5,29.9,30.00,NE,45,0.0,0.0,22,0.00,,,0.00,VWS V14.01,2013-09-29 20:13:00,
2013-09-29 15:18:00,70.7,30.0,30.00,NE,45,0.0,0.0,22,0.00,,,0.00,VWS V14.01,2013-09-29 20:18:00,
2013-09-29 15:23:00,71.1,30.3,30.00,NE,45,0.0,0.0,22,0.00,,,0.00,VWS V14.01,2013-09-29 20:23:00,
2013-09-29 15:28:00,71.1,30.3,30.00,NE,45,0.0,0.0,22,0.00,,,0.00,VWS V14.01,2013-09-29 20:28:00,
2013-09-29 15:33:00,71.1,26.8,30.00,NE,45,0.0,0.0,19,0.00,,,0.00,VWS V14.01,2013-09-29 20:33:00,
2013-09-29 15:38:00,71.2,26.9,30.00,NE,45,0.0,0.0,19,0.00,,,0.00,VWS V14.01,2013-09-29 20:38:00,
2013-09-29 15:43:00,71.4,27.0,30.00,ENE,68,0.0,0.0,19,0.00,,,0.00,VWS V14.01,2013-09-29 20:43:00,
2013-09-29 15:48:00,71.8,27.3,30.00,East,90,0.0,0.0,19,0.00,,,0.00,VWS V14.01,2013-09-29 20:48:00,
2013-09-29 15:53:00,71.6,27.2,30.00,NE,45,0.0,0.0,19,0.00,,,0.00,VWS V14.01,2013-09-29 20:53:00,
2013-09-29 15:58:00,71.6,27.2,30.00,NE,45,0.0,0.0,19,0.00,,,0.00,VWS V14.01,2013-09-29 20:58:00,
2013-09-29 16:03:00,71.8,27.3,30.00,NE,45,0.0,0.0,19,0.00,,,0.00,VWS V14.01,2013-09-29 21:03:00,
2013-09-29 16:08:00,71.6,27.2,29.97,NE,45,0.0,0.0,19,0.00,,,0.00,VWS V14.01,2013-09-29 21:08:00,
2013-09-29 16:13:00,71.6,27.2,29.97,NE,45,0.0,0.0,19,0.00,,,0.00,VWS V14.01,2013-09-29 21:13:00,
2013-09-29 16:18:00,71.6,27.2,29.97,NE,45,0.0,0.0,19,0.00,,,0.00,VWS V14.01,2013-09-29 21:18:00,
2013-09-29 16:23:00,71.4,27.0,29.97,NE,45,0.0,0.0,19,0.00,,,0.00,VWS V14.01,2013-09-29 21:23:00,
2013-09-29 16:28:00,71.4,27.0,29.97,NE,45,0.0,0.0,19,0.00,,,0.00,VWS V14.01,2013-09-29 21:28:00,
2013-09-29 16:33:00,71.4,27.0,29.97,NE,45,0.0,0.0,19,0.00,,,0.00,VWS V14.01,2013-09-29 21:33:00,
2013-09-29 16:38:00,71.4,27.0,29.97,NE,45,0.0,0.0,19,0.00,,,0.00,VWS V14.01,2013-09-29 21:38:00,
2013-09-29 16:43:00,71.6,27.2,29.97,NE,45,0.0,0.0,19,0.00,,,0.00,VWS V14.01,2013-09-29 21:43:00,
2013-09-29 16:48:00,71.4,27.0,29.97,NE,45,0.0,0.0,19,0.00,,,0.00,VWS V14.01,2013-09-29 21:48:00,
2013-09-29 16:53:00,71.8,27.3,29.97,NE,45,0.0,0.0,19,0.00,,,0.00,VWS V14.01,2013-09-29 21:53:00,
2013-09-29 16:58:00,72.0,27.5,29.97,NE,45,0.0,0.0,19,0.00,,,0.00,VWS V14.01,2013-09-29 21:58:00,
2013-09-29 17:04:00,72.7,28.1,29.97,NE,45,0.0,0.0,19,0.00,,,0.00,VWS V14.01,2013-09-29 22:04:00,
2013-09-29 17:09:00,72.5,27.9,29.97,NE,45,0.0,0.0,19,0.00,,,0.00,VWS V14.01,2013-09-29 22:09:00,
2013-09-29 17:14:00,72.3,27.8,29.97,NE,45,0.0,0.0,19,0.00,,,0.00,VWS V14.01,2013-09-29 22:14:00,
2013-09-29 17:19:00,72.0,27.5,29.97,NE,45,0.0,0.0,19,0.00,,,0.00,VWS V14.01,2013-09-29 22:19:00,
2013-09-29 17:24:00,71.6,27.2,29.97,NE,45,0.0,0.0,19,0.00,,,0.00,VWS V14.01,2013-09-29 22:24:00,
2013-09-29 17:29:00,71.4,30.6,29.97,NE,45,0.0,0.0,22,0.00,,,0.00,VWS V14.01,2013-09-29 22:29:00,
2013-09-29 17:34:00,71.1,26.8,29.97,NE,45,0.0,0.0,19,0.00,,,0.00,VWS V14.01,2013-09-29 22:34:00,
2013-09-29 17:39:00,70.7,30.0,29.97,NE,45,0.0,0.0,22,0.00,,,0.00,VWS V14.01,2013-09-29 22:39:00,
2013-09-29 17:44:00,70.5,29.9,29.97,NE,45,0.0,0.0,22,0.00,,,0.00,VWS V14.01,2013-09-29 22:44:00,
2013-09-29 17:49:00,70.3,29.7,29.97,NE,45,0.0,0.0,22,0.00,,,0.00,VWS V14.01,2013-09-29 22:49:00,
2013-09-29 17:54:00,70.2,29.6,29.97,NE,45,0.0,0.0,22,0.00,,,0.00,VWS V14.01,2013-09-29 22:54:00,
2013-09-29 17:59:00,70.0,29.4,29.97,NE,45,0.0,0.0,22,0.00,,,0.00,VWS V14.01,2013-09-29 22:59:00,
2013-09-29 18:04:00,69.6,30.2,29.97,NE,45,0.0,0.0,23,0.00,,,0.00,VWS V14.01,2013-09-29 23:04:00,
2013-09-29 18:09:00,69.4,30.1,29.97,NE,45,0.0,0.0,23,0.00,,,0.00,VWS V14.01,2013-09-29 23:09:00,
2013-09-29 18:14:00,69.1,29.8,29.97,NE,45,0.0,0.0,23,0.00,,,0.00,VWS V14.01,2013-09-29 23:14:00,
2013-09-29 18:19:00,68.7,29.5,29.97,NE,45,0.0,0.0,23,0.00,,,0.00,VWS V14.01,2013-09-29 23:19:00,
2013-09-29 18:23:00,68.4,29.1,29.97,NE,45,0.0,0.0,23,0.00,,,0.00,VWS V14.01,2013-09-29 23:23:00,
2013-09-29 18:28:00,68.2,29.0,29.97,NE,45,0.0,0.0,23,0.00,,,0.00,VWS V14.01,2013-09-29 23:28:00,
2013-09-29 18:33:00,67.8,29.7,29.97,NE,45,0.0,0.0,24,0.00,,,0.00,VWS V14.01,2013-09-29 23:33:00,
2013-09-29 18:38:00,67.3,30.3,29.97,NE,45,0.0,0.0,25,0.00,,,0.00,VWS V14.01,2013-09-29 23:38:00,
2013-09-29 18:43:00,67.1,31.1,29.97,NE,45,0.0,0.0,26,0.00,,,0.00,VWS V14.01,2013-09-29 23:43:00,
2013-09-29 18:48:00,66.6,30.6,29.97,NE,45,0.0,0.0,26,0.00,,,0.00,VWS V14.01,2013-09-29 23:48:00,
2013-09-29 18:53:00,66.2,31.3,29.97,NE,45,0.0,0.0,27,0.00,,,0.00,VWS V14.01,2013-09-29 23:53:00,
2013-09-29 18:58:00,65.8,36.0,29.97,NE,45,0.0,0.0,33,0.00,,,0.00,VWS V14.01,2013-09-29 23:58:00,
2013-09-29 19:03:00,65.3,35.5,29.97,NE,45,0.0,0.0,33,0.00,,,0.00,VWS V14.01,2013-09-30 00:03:00,
2013-09-29 19:08:00,64.8,35.8,29.97,NE,45,0.0,0.0,34,0.00,,,0.00,VWS V14.01,2013-09-30 00:08:00,
2013-09-29 19:13:00,64.2,36.7,29.97,NE,45,0.0,0.0,36,0.00,,,0.00,VWS V14.01,2013-09-30 00:13:00,
2013-09-29 19:18:00,63.5,37.5,29.97,NE,45,0.0,0.0,38,0.00,,,0.00,VWS V14.01,2013-09-30 00:18:00,
2013-09-29 19:23:00,63.0,36.3,29.97,NE,45,0.0,0.0,37,0.00,,,0.00,VWS V14.01,2013-09-30 00:23:00,
2013-09-29 19:28:00,62.6,38.6,29.97,NE,45,0.0,0.0,41,0.00,,,0.00,VWS V14.01,2013-09-30 00:28:00,
2013-09-29 19:33:00,62.2,39.5,29.97,NE,45,0.0,0.0,43,0.00,,,0.00,VWS V14.01,2013-09-30 00:33:00,
2013-09-29 19:38:00,61.7,37.8,29.97,NE,45,0.0,0.0,41,0.00,,,0.00,VWS V14.01,2013-09-30 00:38:00,
2013-09-29 19:43:00,61.7,37.2,29.97,NE,45,0.0,0.0,40,0.00,,,0.00,VWS V14.01,2013-09-30 00:43:00,
2013-09-29 19:48:00,61.7,36.5,29.97,NE,45,0.0,0.0,39,0.00,,,0.00,VWS V14.01,2013-09-30 00:48:00,
2013-09-29 19:53:00,61.7,35.9,29.97,NE,45,0.0,0.0,38,0.00,,,0.00,VWS V14.01,2013-09-30 00:53:00,
2013-09-29 19:58:00,61.7,35.9,29.97,NE,45,0.0,0.0,38,0.00,,,0.00,VWS V14.01,2013-09-30 00:58:00,
2013-09-29 20:03:00,61.7,35.9,29.97,NE,45,0.0,0.0,38,0.00,,,0.00,VWS V14.01,2013-09-30 01:03:00,
2013-09-29 20:08:00,61.5,35.0,29.97,NE,45,0.0,0.0,37,0.00,,,0.00,VWS V14.01,2013-09-30 01:08:00,
2013-09-29 20:13:00,61.3,34.9,29.97,NE,45,0.0,0.0,37,0.00,,,0.00,VWS V14.01,2013-09-30 01:13:00,
2013-09-29 20:18:00,61.3,34.9,29.97,NE,45,0.0,0.0,37,0.00,,,0.00,VWS V14.01,2013-09-30 01:18:00,
2013-09-29 20:23:00,61.2,34.7,29.97,NE,45,0.0,0.0,37,0.00,,,0.00,VWS V14.01,2013-09-30 01:23:00,
2013-09-29 20:28:00,61.2,35.4,29.97,NE,45,0.0,0.0,38,0.00,,,0.00,VWS V14.01,2013-09-30 01:28:00,
2013-09-29 20:33:00,61.0,34.5,29.97,NE,45,0.0,0.0,37,0.00,,,0.00,VWS V14.01,2013-09-30 01:33:00,
2013-09-29 20:43:00,60.6,34.9,29.97,NE,45,0.0,0.0,38,0.00,,,0.00,VWS V14.01,2013-09-30 01:43:00,
2013-09-29 20:48:00,60.4,35.4,29.97,NE,45,0.0,0.0,39,0.00,,,0.00,VWS V14.01,2013-09-30 01:48:00,
2013-09-29 20:53:00,60.3,35.9,30.00,NE,45,0.0,0.0,40,0.00,,,0.00,VWS V14.01,2013-09-30 01:53:00,
2013-09-29 20:58:00,60.1,36.3,30.00,NE,45,0.0,0.0,41,0.00,,,0.00,VWS V14.01,2013-09-30 01:58:00,
2013-09-29 21:03:00,59.7,37.2,30.00,NE,45,0.0,0.0,43,0.00,,,0.00,VWS V14.01,2013-09-30 02:03:00,
2013-09-29 21:08:00,59.4,37.5,29.97,NE,45,0.0,0.0,44,0.00,,,0.00,VWS V14.01,2013-09-30 02:08:00,
2013-09-29 21:13:00,59.0,37.7,29.97,NE,45,0.0,0.0,45,0.00,,,0.00,VWS V14.01,2013-09-30 02:13:00,
2013-09-29 21:18:00,58.8,37.5,29.97,NE,45,0.0,0.0,45,0.00,,,0.00,VWS V14.01,2013-09-30 02:18:00,
2013-09-29 21:23:00,58.5,38.3,29.97,NE,45,0.0,0.0,47,0.00,,,0.00,VWS V14.01,2013-09-30 02:23:00,
2013-09-29 21:28:00,58.3,38.2,29.97,NE,45,0.0,0.0,47,0.00,,,0.00,VWS V14.01,2013-09-30 02:28:00,
2013-09-29 21:33:00,58.1,38.0,29.97,NE,45,0.0,0.0,47,0.00,,,0.00,VWS V14.01,2013-09-30 02:33:00,
2013-09-29 21:38:00,57.9,38.9,29.97,NE,45,0.0,0.0,49,0.00,,,0.00,VWS V14.01,2013-09-30 02:38:00,
2013-09-29 21:43:00,57.7,38.7,29.97,NE,45,0.0,0.0,49,0.00,,,0.00,VWS V14.01,2013-09-30 02:43:00,
2013-09-29 21:48:00,57.6,38.6,29.97,NE,45,0.0,0.0,49,0.00,,,0.00,VWS V14.01,2013-09-30 02:48:00,
2013-09-29 21:53:00,57.4,38.4,30.00,NE,45,0.0,0.0,49,0.00,,,0.00,VWS V14.01,2013-09-30 02:53:00,
2013-09-29 21:58:00,57.2,38.8,30.00,NE,45,0.0,0.0,50,0.00,,,0.00,VWS V14.01,2013-09-30 02:58:00,
2013-09-29 22:03:00,56.8,39.4,30.00,NE,45,0.0,0.0,52,0.00,,,0.00,VWS V14.01,2013-09-30 03:03:00,
2013-09-29 22:08:00,56.5,39.6,29.97,NE,45,0.0,0.0,53,0.00,,,0.00,VWS V14.01,2013-09-30 03:08:00,
2013-09-29 22:13:00,56.3,39.9,29.97,NE,45,0.0,0.0,54,0.00,,,0.00,VWS V14.01,2013-09-30 03:13:00,
2013-09-29 22:18:00,55.9,40.0,29.97,NE,45,0.0,0.0,55,0.00,,,0.00,VWS V14.01,2013-09-30 03:18:00,
2013-09-29 22:23:00,55.8,39.8,30.00,NE,45,0.0,0.0,55,0.00,,,0.00,VWS V14.01,2013-09-30 03:23:00,
2013-09-29 22:28:00,55.6,40.2,30.00,NE,45,0.0,0.0,56,0.00,,,0.00,VWS V14.01,2013-09-30 03:28:00,
2013-09-29 22:33:00,55.2,40.3,30.00,NE,45,0.0,0.0,57,0.00,,,0.00,VWS V14.01,2013-09-30 03:33:00,
2013-09-29 22:38:00,55.0,40.5,29.97,NE,45,0.0,0.0,58,0.00,,,0.00,VWS V14.01,2013-09-30 03:38:00,
2013-09-29 22:43:00,54.9,40.8,29.97,NE,45,0.0,0.0,59,0.00,,,0.00,VWS V14.01,2013-09-30 03:43:00,
2013-09-29 22:48:00,54.7,41.1,29.97,NE,45,0.0,0.0,60,0.00,,,0.00,VWS V14.01,2013-09-30 03:48:00,
2013-09-29 22:53:00,54.5,41.3,30.00,NE,45,0.0,0.0,61,0.00,,,0.00,VWS V14.01,2013-09-30 03:53:00,
2013-09-29 22:58:00,54.3,41.6,30.00,NE,45,0.0,0.0,62,0.00,,,0.00,VWS V14.01,2013-09-30 03:58:00,
2013-09-29 23:01:00,54.3,41.6,30.00,NE,45,0.0,0.0,62,0.00,,,0.00,VWS V14.01,2013-09-30 04:01:00,
2013-09-29 23:02:00,54.3,41.6,30.00,NE,45,0.0,0.0,62,0.00,,,0.00,VWS V14.01,2013-09-30 04:02:00,
2013-09-29 23:07:00,54.1,41.8,30.00,NE,45,0.0,0.0,63,0.00,,,0.00,VWS V14.01,2013-09-30 04:07:00,
2013-09-29 23:12:00,54.0,42.1,29.97,NE,45,0.0,0.0,64,0.00,,,0.00,VWS V14.01,2013-09-30 04:12:00,
2013-09-29 23:17:00,53.8,41.9,29.97,NE,45,0.0,0.0,64,0.00,,,0.00,VWS V14.01,2013-09-30 04:17:00,
2013-09-29 23:22:00,53.6,42.1,29.97,NE,45,0.0,0.0,65,0.00,,,0.00,VWS V14.01,2013-09-30 04:22:00,
2013-09-29 23:27:00,53.6,42.5,29.97,NE,45,0.0,0.0,66,0.00,,,0.00,VWS V14.01,2013-09-30 04:27:00,
2013-09-29 23:32:00,53.4,42.8,29.97,NE,45,0.0,0.0,67,0.00,,,0.00,VWS V14.01,2013-09-30 04:32:00,
2013-09-29 23:37:00,53.4,42.8,29.97,NE,45,0.0,0.0,67,0.00,,,0.00,VWS V14.01,2013-09-30 04:37:00,
2013-09-29 23:42:00,53.2,43.0,29.97,NE,45,0.0,0.0,68,0.00,,,0.00,VWS V14.01,2013-09-30 04:42:00,
2013-09-29 23:47:00,53.1,42.8,29.97,NE,45,0.0,0.0,68,0.00,,,0.00,VWS V14.01,2013-09-30 04:47:00,
2013-09-29 23:52:00,52.9,43.0,29.97,NE,45,0.0,0.0,69,0.00,,,0.00,VWS V14.01,2013-09-30 04:52:00,
2013-09-29 23:57:00,52.9,43.0,29.97,NE,45,0.0,0.0,69,0.00,,,0.00,VWS V14.01,2013-09-30 04:57:00,